Weather observations for the past three days for
Brookings, Brookings Airport
Imperial (Metric)
Date Time (pdt) Wind (mph) Vis. (mi.) Weather Sky Cond. Temperature (ºF) Relative Humidity Wind Chill (°F) Heat Index (°F) Pressure Precipitation (in)
Air Dwpt 6 hour altimeter (in) sea level (mb) 1 hr 3 hr 6 hr
Max. Min.
21 14:56 SE 10 10.00 Fair CLR 66.9 57.9 73% 30.06 1017.9
21 13:56 SE 8 10.00 A Few Clouds FEW015 66 57.9 75% 30.07 1018.1
21 12:56 SE 8 10.00 A Few Clouds FEW014 64.9 57.9 78% 30.08 1018.5
21 11:56 Vrbl 6 10.00 Overcast OVC012 63 57.9 84% 30.09 1018.8
21 10:56 S 6 10.00 Overcast OVC008 61 57.9 61 55.9 90% 30.09 1018.8
21 09:56 SE 3 10.00 Overcast OVC008 61 57.9 90% 30.09 1018.7
21 08:56 SW 3 10.00 Overcast OVC008 59 57.9 96% 30.09 1018.7
21 07:56 W 5 10.00 Overcast BKN006 OVC010 57.9 57.9 100% 30.09 1018.8
21 06:56 Calm 10.00 Overcast BKN004 OVC009 57 57 100% 30.09 1018.8
21 05:56 Calm 10.00 Overcast FEW005 OVC009 57 57 100% 30.09 1018.7
21 04:56 Calm 6.00 Fog/Mist BKN002 OVC011 55.9 55.9 57.9 55.9 100% 30.09 1018.8
21 03:56 Calm 10.00 Overcast OVC011 57.9 57.9 100% 30.08 1018.7
21 02:56 Calm 10.00 Overcast OVC011 57 57 100% 30.08 1018.6
21 01:56 Calm 10.00 Overcast BKN009 OVC013 57.9 57.9 100% 30.1 1019.1
21 00:56 NW 3 9.00 Overcast OVC013 57 57 100% 30.12 1019.8
20 23:56 Calm 10.00 Overcast FEW004 OVC013 57 57 100% 30.12 1019.9
20 22:56 Vrbl 3 8.00 Overcast OVC002 57 57 63 57 100% 30.13 1020.2
20 21:56 SE 5 10.00 Overcast OVC002 57 57 100% 30.12 1019.8
20 20:56 Vrbl 3 10.00 Overcast OVC002 57 57 100% 30.1 1019.2
20 19:56 S 6 8.00 Overcast OVC004 57 57 100% 30.08 1018.6
20 18:56 SE 8 10.00 Overcast OVC006 57.9 57 97% 30.07 1018.4
20 17:56 S 7 10.00 Mostly Cloudy BKN010 61 57 87% 30.06 1017.9
20 16:56 SE 8 10.00 Fair CLR 63 57 64.9 55.9 81% 30.06 1018.0
20 15:56 SE 8 10.00 Fair CLR 63 57 81% 30.08 1018.4
20 14:56 SE 8 10.00 Partly Cloudy SCT014 64.9 57 76% 30.09 1018.8
20 13:56 S 6 10.00 Overcast OVC010 62.1 57 84% 30.1 1019.2
20 12:56 Calm 10.00 Mostly Cloudy BKN010 61 55 81% 30.1 1019.3
20 11:56 S 3 10.00 Overcast OVC006 57.9 57.9 100% 30.11 1019.4
20 10:56 Calm 10.00 Overcast OVC002 55.9 55.9 55.9 54 100% 30.11 1019.7
20 09:56 S 3 0.50 Fog OVC002 55 55 100% 30.12 1019.8
20 08:56 Calm 5.00 Fog/Mist OVC002 55 55 100% 30.12 1019.9
20 07:56 Vrbl 3 0.75 Light Rain Fog/Mist OVC002 55 55 100% 30.11 1019.6
20 06:56 Calm 1.25 Light Rain Fog/Mist OVC002 54 54 100% 30.11 1019.5
20 05:56 Calm 0.50 Light Rain Fog OVC002 54 54 100% 30.11 1019.5
20 04:56 Calm 0.75 Light Rain Fog/Mist OVC002 55 55 57 54 100% 30.11 1019.6
20 03:56 Calm 0.25 Light Rain Fog OVC002 55 55 100% 30.11 1019.6
20 02:56 Calm 0.25 Light Rain Fog OVC002 55 55 100% 30.11 1019.6
20 01:56 Calm 0.25 Light Rain Fog OVC002 55 55 100% 30.12 1019.9
20 00:56 Calm 0.50 Fog OVC002 55 55 100% 30.13 1020.2
19 23:56 Calm 0.25 Light Rain Fog OVC002 55.9 55.9 100% 30.13 1020.4
19 22:56 SE 5 1.00 Fog/Mist OVC002 57 57 69.1 57 100% 30.13 1020.3
19 21:56 E 3 10.00 Mostly Cloudy BKN004 57.9 57.9 100% 30.13 1020.2
19 20:56 Vrbl 3 10.00 Fair CLR 60.1 57.9 93% 30.11 1019.7
19 19:56 S 8 10.00 Fair CLR 63 57.9 84% 30.11 1019.5
19 18:56 S 7 10.00 Fair CLR 66 57 73% 30.11 1019.5
19 17:56 S 7 10.00 Fair CLR 66 57 73% 30.11 1019.5
19 16:56 SE 9 10.00 Fair CLR 69.1 57 70 64.9 66% 30.11 1019.6
19 15:56 SE 8 10.00 Fair CLR 68 57 68% 30.12 1019.8
19 14:56 S 9 10.00 Fair CLR 68 57 68% 30.13 1020.3
19 13:56 SE 8 10.00 Fair CLR 68 55.9 65% 30.14 1020.5
19 12:56 S 6 10.00 Fair CLR 66.9 55.9 68% 30.15 1020.8
19 11:56 S 6 10.00 Fair CLR 64.9 57 76% 30.16 1021.1
19 10:56 S 5 10.00 Fair CLR 64.9 55.9 66 53.1 73% 30.16 1021.4
19 09:56 SW 3 10.00 Fair CLR 64.9 55.9 73% 30.16 1021.5
19 08:56 SW 3 10.00 Fair CLR 63 57 81% 30.17 1021.6
19 07:56 Calm 10.00 Fair CLR 59 55.9 90% 30.17 1021.4
19 06:56 Calm 10.00 Fair CLR 53.1 53.1 100% 30.16 1021.3
19 05:56 Calm 10.00 Fair CLR 53.1 53.1 100% 30.16 1021.2
19 04:56 Calm 10.00 Fair CLR 53.1 53.1 55 53.1 100% 30.16 1021.4
19 03:56 Calm 10.00 Fair CLR 54 54 100% 30.16 1021.3
19 02:56 Calm 10.00 Fair CLR 54 54 100% 30.16 1021.4
19 01:56 Calm 10.00 Fair CLR 53.1 53.1 100% 30.17 1021.5
19 00:56 Calm 10.00 Fair CLR 54 54 100% 30.17 1021.5
18 23:56 Calm 0.25 Light Rain Fog OVC001 53.1 53.1 100% 30.18 1021.7
18 22:56 Calm 10.00 Fair CLR 54 54 64.9 53.1 100% 30.17 1021.5
18 20:56 E 3 10.00 Fair CLR 55.9 55.9 100% 30.15 1020.8
18 19:56 S 3 10.00 Fair CLR 57.9 57 97% 0 0.0
18 18:56 S 6 10.00 Fair CLR 61 57 87% 30.13 1020.3
18 17:56 SE 6 10.00 Fair CLR 63 57 81% 30.13 1020.2
18 16:56 SE 6 10.00 Fair CLR 64.9 57 69.1 62.1 76% 30.13 1020.3
18 15:56 SE 5 10.00 Fair CLR 63 57 81% 30.13 1020.3
Date Time (pdt) Wind (mph) Vis. (mi.) Weather Sky Cond. Air Dwpt Max. Min. Relative Humidity Wind Chill (°F) Heat Index (°F) altimeter (in) sea level (mb) 1 hr 3 hr 6 hr
6 hour
Temperature (ºF) Pressure Precipitation (in)